Find Starlink 3306

NORAD ID: 50163 Int'l Des: 2021-125 Owner: SPXS Country: US Constellation: starlink operational
LEOCIRCULAR

当前视图

正在加载3D地球...

About Starlink 3306

Starlink 3306 (NORAD 50163) is a starlink constellation satellite (v1.5) launched Dec 18, 2021 by SPXS of US. It operates in LEO, CIRCULAR orbit with a mass of 290.00 kg.

关于 Starlink 3306

正在加载描述...

即将过境

Passes for default location (London). Set your location on the main map for personalized predictions.

高度历史

Loading altitude history...

两行轨道根数

1 50163U 21125H 26193.50002315 .00697943 00000-0 56392-2 0 9998
2 50163 53.2170 27.0559 0000941 88.4041 234.8513 15.68172628 5919
Epoch: Jul 12, 2026 • Age: 4 hours

当前状态

高度 363.8 km
远地点 / 近地点 N/A
速度 7.69 km/s
星下点 20.20°N, 21.75°E
发射日期 Dec 18, 2021
运行时间 4.5 years
类型 internet

技术详情

分类 Payload
质量 290.00 kg
干质量 270.00 kg
总质量 290.00 kg
长度 0.20 m
直径 2.80 m
跨度 9.00 m
形状 Box + pan
制造商 SPXS
平台类型 Starlink
阶段状态 In Orbit
所有者/国家 SPXS/US

Most Searched